SL-19 DEB, 23479

Orbit data source: Space-Track

SL-19 DEB, 23479 is space debris in LEO originally from a launch on Mon, 26 Dec 1994 UTC launched from the Tyuratam Missile And Space Complex (TTMTR). Debris objects in space refer to the collection of defunct objects orbiting the Earth. Examples of debris include non-operational satellites, rocket bodies, and fragments generated from explosions, collisions, or faulty payload assembly.

Loading next visibility...
Identifier
23479, 1994-085C
Orbit
LEO
Last TLE update
16 hours ago
Origin
Manufacturer
Unknown
Mission
Spacecraft
Bus & Motor
Unknown
Mass
Unknown
Launch date (UTC)
1994-12-26 (31 years ago)
Launch vehicle
Unknown
Launch site
Tyuratam Missile And Space Complex (TTMTR)
Object type
Payload
Rocket body
Debris
Shape & HBR
Unknown
Radar Cross Section
Medium (>0.1 m² and <1 m²)

Expand to show TLE details & history

TLE from 16 hours ago
0 SL-19 DEB
1 23479U 94085C   25183.46047900  .00002989  00000-0  71499-1 0  9999
2 23479  65.0458  87.1863 0085128  67.0938 105.3517 11.45316118273167
Epoch: 2025-07-02T11:03Z
TLE epoch observation values (Epoch: 2025-07-02T11:03:05.385Z)
Latitude
5.94291°
Longitude
177.90903°
Altitude
1,955.812 km
Speed
6.91 km/s
True Right ascension
17h 37m 41s
True Declination
5° 54' 46"
Sunlit
Object was in full shadow at epoch
Visualization orbit readout
Latitude
64.62073°
Longitude
102.04126°
Altitude
1,883.197 km
Speed
6.979 km/s
Apparent Right ascension
06h 11m 32s
Apparent Declination
47° 54' 14"
Sunlit
Object is in daylight
Visualization observer readout
Local Sidereal Time
15:07:03
Azimuth
330.875° NNW
Elevation
6.877°
Doppler factor
1
Orbital elements
Apogee altitude
2,004.914 km
Perigee altitude
1,863.392 km
Semi-major axis
8,312.29 km
Eccentricity
0.00851
Inclination
65.0458°
RAAN
87.1863°
Arg. of periapsis
67.0938°
True anomaly
Unknown
Mean anomaly
105.3517°
Eccentric anomaly
Unknown
Mean motion
2.86393 °/min
Orbital period
125.7 mins
BSTAR
0.071499
Loading maneuver chart data...
Loading SW <> Apogee altitude chart data...
Loading historical data...
Loading historical data...
Loading historical data...
Loading historical data...
Loading historical data...
Loading historical data...
Loading historical data...

SL-19 DEB Visibility forecast

Observer location: undefined°, undefined°

Span
Click to sort rows by Start time (UTC) header in descending order
Start Az.
Max El. time (UTC)
Max El. Az.
Max El.
End time (UTC)
End Az.
20 mins2025-07-03 03:23:53.079Z334.383° NNW2025-07-03 03:33:53.079Z57.755° ENE39.928°2025-07-03 03:43:53.079Z127.468° SE
18 mins2025-07-03 05:34:53.079Z313.582° NW2025-07-03 05:43:53.079Z245.9° WSW33.781°2025-07-03 05:52:53.079Z187.523° SSW
16 mins2025-07-03 17:34:53.079Z154.871° SSE2025-07-03 17:41:53.079Z107.379° ESE27.045°2025-07-03 17:50:53.079Z49.041° ENE
20 mins2025-07-03 19:41:53.079Z222.109° SW2025-07-03 19:51:53.079Z319.023° NNW43.301°2025-07-03 20:01:53.079Z29.065° NE
15 mins2025-07-03 21:56:53.079Z285.537° WNW2025-07-03 22:03:53.079Z331.217° NNW22.767°2025-07-03 22:11:53.079Z22.352° NNE
11 mins2025-07-04 00:14:53.079Z338.261° N2025-07-04 00:19:53.079Z9.583° NNE17.022°2025-07-04 00:25:53.079Z45.308° ENE
18 mins2025-07-04 02:25:53.079Z339.789° N2025-07-04 02:33:53.079Z36.83° NE31.549°2025-07-04 02:43:53.079Z105.612° ESE
|